FALCON 9 R/B, 44869

Orbit data source: Space-Track

FALCON 9 R/B, 44869 is space debris in HEO originally from a launch on Tue, 17 Dec 2019 UTC launched from the Air Force Eastern Test Range (AFETR). Debris objects in space refer to the collection of defunct objects orbiting the Earth. Examples of debris include non-operational satellites, rocket bodies, and fragments generated from explosions, collisions, or faulty payload assembly.

Loading next visibility...
Identifier
44869, 2019-091B
Orbit
HEO
Country
Flag of USUS
Related business
Manufacturer
SpaceX
Mission
Spacecraft
Bus & Motor
F9ST2, Unknown motor
Mass
~4,000 kg wet, ~4,000 kg dry
Launch date (UTC)
2019-12-17 (6 years ago)
Launch vehicle
Unknown
Launch site
Air Force Eastern Test Range (AFETR)
Object type
Payload
Rocket body
Debris
Shape & HBR
Cyl, 7.8 m
Radar Cross Section
39.980 m², Large (>1 m²)

Expand to show TLE details & history
Last TLE update: 19 hours ago

TLE from 19 hours ago
0 FALCON 9 R/B
1 44869U 19091B   25309.56212415  .00002323  00000-0  72255-3 0  9990
2 44869  26.9932  29.5642 5808238 116.7525 312.9210  4.29983087 89457
Epoch: 2025-11-05T13:29Z
TLE epoch observation values (Epoch: 2025-11-05T13:29:27.526Z)
Latitude
0.00006°
Longitude
142.15033°
Altitude
7,963.018 km
Speed
5.535 km/s
True Right ascension
01h 58m 11s
True Declination
0° 00' 00"
Sunlit
Object was in full shadow at epoch
Visualization orbit readout
Latitude
Unknown
Longitude
Unknown
Altitude
Unknown
Speed
Unknown
Apparent Right ascension
Unknown
Apparent Declination
Unknown
Sunlit
N/A
Visualization observer readout
Local Sidereal Time
04:28:38
Azimuth
Unknown
Elevation
Unknown
Doppler factor
Unknown
Orbital elements
Apogee altitude
18,880.738 km
Perigee altitude
319.586 km
Semi-major axis
15,978.299 km
Eccentricity
0.58082
Inclination
26.9932°
RAAN
29.5642°
Arg. of periapsis
116.7525°
True anomaly
243.22246°
Mean anomaly
312.921°
Eccentric anomaly
280.16456°
Mean motion
1.0746 °/min
Orbital period
335.01 mins
BSTAR
0.00072255
Loading maneuver chart data...
Computing Atmospheric mass density...
Loading historical data...
Loading historical data...
Loading historical data...
Loading historical data...
Loading historical data...
Loading historical data...
Loading historical data...
Other satellites on launch #91 in the year 2019 (2019-12-17 UTC)

Documentation

Showing up to 5 results
|